When you browse on this site, cookies collect data to enhance your experience and personalize the content and advertising you see.
Visit our Privacy Policy to learn more. By continuing to use the site, you agree to this use of cookies and data.
  • In Hungary
  • List of Countries
  • For 7 days
  • Water Temperature
  • Satellite Maps
  • Weather Map
  • News
  • Weather Widgets
  • user-avatar
    Login

    Hourly Weather Carnaxide

    Today, 20 July, Saturday

    Time Temperature Precipitation Wind Pressure Humidity
    00:00 +20°C° 0 mm 6 mps 759 mmHg 88%
    01:00 +20°C° 0 mm 6 mps 759 mmHg 88%
    02:00 +19°C° 0 mm 6 mps 759 mmHg 88%
    03:00 +19°C° 0 mm 6 mps 759 mmHg 88%
    04:00 +19°C° 0 mm 5 mps 759 mmHg 88%
    05:00 +19°C° 0 mm 5 mps 759 mmHg 90%
    06:00 +21°C° 0 mm 5 mps 759 mmHg 82%
    07:00 +23°C° 0 mm 6 mps 759 mmHg 75%
    08:00 +24°C° 0 mm 6 mps 759 mmHg 67%
    09:00 +26°C° 0 mm 6 mps 760 mmHg 62%
    10:00 +28°C° 0 mm 7 mps 760 mmHg 57%
    11:00 +29°C° 0 mm 8 mps 760 mmHg 52%
    12:00 +29°C° 0 mm 8 mps 760 mmHg 52%
    13:00 +29°C° 0 mm 8 mps 760 mmHg 52%
    14:00 +29°C° 0 mm 8 mps 760 mmHg 52%
    15:00 +28°C° 0 mm 8 mps 760 mmHg 53%
    16:00 +27°C° 0 mm 8 mps 760 mmHg 55%
    17:00 +26°C° 0 mm 8 mps 760 mmHg 56%
    18:00 +23°C° 0 mm 8 mps 760 mmHg 62%
    19:00 +22°C° 0 mm 7 mps 761 mmHg 67%
    20:00 +20°C° 0 mm 6 mps 761 mmHg 73%
    21:00 +20°C° 0 mm 6 mps 761 mmHg 74%
    22:00 +19°C° 0 mm 6 mps 761 mmHg 76%
    23:00 +19°C° 0 mm 6 mps 761 mmHg 77%

    Tomorrow, 21 July, Sunday

    Time Temperature Precipitation Wind Pressure Humidity
    00:00 +19°C° 0 mm 6 mps 761 mmHg 79%
    01:00 +17°C° 0 mm 6 mps 761 mmHg 81%
    02:00 +17°C° 0 mm 6 mps 761 mmHg 83%
    03:00 +17°C° 0 mm 6 mps 761 mmHg 83%
    04:00 +17°C° 0 mm 6 mps 761 mmHg 83%
    05:00 +17°C° 0 mm 6 mps 761 mmHg 84%
    06:00 +20°C° 0 mm 6 mps 761 mmHg 75%
    07:00 +22°C° 0 mm 6 mps 761 mmHg 67%
    08:00 +24°C° 0 mm 6 mps 761 mmHg 59%
    09:00 +26°C° 0 mm 6 mps 761 mmHg 54%
    10:00 +27°C° 0 mm 6 mps 761 mmHg 50%
    11:00 +29°C° 0 mm 7 mps 761 mmHg 45%
    12:00 +29°C° 0 mm 7 mps 761 mmHg 45%
    13:00 +29°C° 0 mm 7 mps 761 mmHg 44%
    14:00 +31°C° 0 mm 8 mps 760 mmHg 44%
    15:00 +28°C° 0 mm 8 mps 760 mmHg 47%
    16:00 +27°C° 0 mm 8 mps 760 mmHg 50%
    17:00 +26°C° 0 mm 8 mps 760 mmHg 53%
    18:00 +23°C° 0 mm 8 mps 760 mmHg 60%
    19:00 +21°C° 0 mm 7 mps 761 mmHg 67%
    20:00 +20°C° 0 mm 6 mps 761 mmHg 73%
    21:00 +19°C° 0 mm 6 mps 761 mmHg 76%
    22:00 +19°C° 0 mm 5 mps 761 mmHg 79%
    23:00 +17°C° 0 mm 5 mps 761 mmHg 81%

    Day after tomorrow, 22 July, Monday

    Time Temperature Precipitation Wind Pressure Humidity
    00:00 +18°C° 0 mm 4 mps 761 mmHg 83%
    01:00 +18°C° 0 mm 3 mps 760 mmHg 85%
    02:00 +18°C° 0 mm 2 mps 760 mmHg 86%
    03:00 +18°C° 0 mm 2 mps 760 mmHg 87%
    04:00 +18°C° 0 mm 2 mps 760 mmHg 88%
    05:00 +18°C° 0 mm 2 mps 760 mmHg 89%
    06:00 +20°C° 0 mm 2 mps 760 mmHg 80%
    07:00 +22°C° 0 mm 3 mps 760 mmHg 70%
    08:00 +26°C° 0 mm 3 mps 761 mmHg 61%
    09:00 +28°C° 0 mm 3 mps 760 mmHg 54%
    10:00 +30°C° 0 mm 3 mps 760 mmHg 46%
    11:00 +33°C° 0 mm 4 mps 760 mmHg 39%
    12:00 +33°C° 0 mm 4 mps 760 mmHg 39%
    13:00 +33°C° 0 mm 5 mps 760 mmHg 40%
    14:00 +33°C° 0 mm 5 mps 759 mmHg 40%
    15:00 +30°C° 0 mm 5 mps 759 mmHg 44%
    16:00 +29°C° 0 mm 6 mps 759 mmHg 48%
    17:00 +28°C° 0 mm 6 mps 759 mmHg 52%
    18:00 +26°C° 0 mm 6 mps 759 mmHg 62%
    19:00 +23°C° 0 mm 6 mps 759 mmHg 71%
    20:00 +21°C° 0 mm 6 mps 760 mmHg 80%
    21:00 +20°C° 0 mm 5 mps 760 mmHg 82%
    22:00 +20°C° 0 mm 4 mps 759 mmHg 84%
    23:00 +20°C° 0 mm 4 mps 759 mmHg 85%

    23 July, Tuesday

    Time Temperature Precipitation Wind Pressure Humidity
    00:00 +19°C° 0 mm 3 mps 759 mmHg 86%
    01:00 +19°C° 0 mm 3 mps 759 mmHg 86%
    02:00 +19°C° 0 mm 3 mps 759 mmHg 86%
    03:00 +19°C° 0 mm 3 mps 759 mmHg 86%
    04:00 +19°C° 0 mm 3 mps 759 mmHg 87%
    05:00 +19°C° 0 mm 3 mps 759 mmHg 87%
    06:00 +21°C° 0 mm 3 mps 759 mmHg 80%
    07:00 +22°C° 0 mm 3 mps 759 mmHg 72%
    08:00 +25°C° 0 mm 4 mps 759 mmHg 65%
    09:00 +27°C° 0 mm 4 mps 759 mmHg 57%
    10:00 +29°C° 0 mm 4 mps 759 mmHg 50%
    11:00 +32°C° 0 mm 5 mps 759 mmHg 43%
    12:00 +30°C° 0 mm 6 mps 759 mmHg 43%
    13:00 +30°C° 0 mm 7 mps 759 mmHg 44%
    14:00 +29°C° 0 mm 8 mps 759 mmHg 45%
    15:00 +29°C° 0 mm 8 mps 758 mmHg 46%
    16:00 +28°C° 0 mm 7 mps 758 mmHg 47%
    17:00 +27°C° 0 mm 7 mps 758 mmHg 48%
    18:00 +26°C° 0 mm 6 mps 758 mmHg 54%
    19:00 +23°C° 0 mm 6 mps 758 mmHg 60%
    20:00 +21°C° 0 mm 5 mps 759 mmHg 66%
    21:00 +21°C° 0 mm 5 mps 759 mmHg 69%
    22:00 +20°C° 0 mm 4 mps 759 mmHg 73%
    23:00 +20°C° 0 mm 4 mps 758 mmHg 76%

    24 July, Wednesday

    Time Temperature Precipitation Wind Pressure Humidity
    00:00 +20°C° 0 mm 3 mps 758 mmHg 77%
    01:00 +19°C° 0 mm 3 mps 758 mmHg 79%
    02:00 +19°C° 0 mm 2 mps 758 mmHg 81%
    03:00 +19°C° 0 mm 2 mps 758 mmHg 82%
    04:00 +19°C° 0 mm 2 mps 758 mmHg 83%
    05:00 +18°C° 0 mm 2 mps 757 mmHg 84%
    06:00 +21°C° 0 mm 2 mps 758 mmHg 72%
    07:00 +24°C° 0 mm 2 mps 758 mmHg 60%
    08:00 +27°C° 0 mm 2 mps 758 mmHg 49%
    09:00 +28°C° 0 mm 3 mps 758 mmHg 43%
    10:00 +30°C° 0 mm 4 mps 757 mmHg 38%
    11:00 +33°C° 0 mm 4 mps 757 mmHg 33%
    12:00 +33°C° 0 mm 5 mps 757 mmHg 34%
    13:00 +32°C° 0 mm 5 mps 757 mmHg 35%
    14:00 +32°C° 0 mm 6 mps 756 mmHg 35%
    15:00 +30°C° 0 mm 6 mps 756 mmHg 41%
    16:00 +29°C° 0 mm 6 mps 756 mmHg 48%
    17:00 +27°C° 0 mm 6 mps 756 mmHg 54%
    18:00 +26°C° 0 mm 5 mps 757 mmHg 64%
    19:00 +23°C° 0 mm 5 mps 757 mmHg 74%
    20:00 +22°C° 0 mm 4 mps 758 mmHg 84%
    21:00 +22°C° 0 mm 3 mps 758 mmHg 86%
    22:00 +21°C° 0 mm 2 mps 758 mmHg 88%
    23:00 +21°C° 0 mm 2 mps 757 mmHg 90%

    25 July, Thursday

    Time Temperature Precipitation Wind Pressure Humidity
    00:00 +21°C° 0 mm 2 mps 757 mmHg 91%
    01:00 +21°C° 0 mm 2 mps 757 mmHg 92%
    02:00 +21°C° 0 mm 2 mps 757 mmHg 92%
    03:00 +22°C° 0 mm 1 mps 757 mmHg 92%
    04:00 +22°C° 0 mm 1 mps 757 mmHg 91%
    05:00 +22°C° 0 mm 1 mps 757 mmHg 90%
    06:00 +23°C° 0 mm 1 mps 758 mmHg 79%
    07:00 +25°C° 0 mm 1 mps 758 mmHg 68%
    08:00 +26°C° 0 mm 2 mps 758 mmHg 58%
    09:00 +27°C° 0 mm 2 mps 758 mmHg 54%
    10:00 +28°C° 0 mm 3 mps 758 mmHg 51%
    11:00 +29°C° 0 mm 3 mps 758 mmHg 48%
    12:00 +29°C° 0 mm 4 mps 758 mmHg 52%
    13:00 +29°C° 0 mm 5 mps 758 mmHg 57%
    14:00 +28°C° 0 mm 6 mps 758 mmHg 61%
    15:00 +28°C° 0 mm 6 mps 758 mmHg 61%
    16:00 +27°C° 0 mm 6 mps 759 mmHg 62%
    17:00 +26°C° 0 mm 6 mps 759 mmHg 62%
    18:00 +23°C° 0 mm 6 mps 759 mmHg 67%
    19:00 +22°C° 0 mm 7 mps 760 mmHg 72%
    20:00 +20°C° 0 mm 7 mps 760 mmHg 76%
    21:00 +19°C° 0 mm 6 mps 760 mmHg 76%
    22:00 +19°C° 0 mm 6 mps 760 mmHg 76%
    23:00 +17°C° 0 mm 6 mps 760 mmHg 76%
    Show more